This demonstration page uses our WeatherBlox Daily Observations layout. Learn more.

Left ArrowRight Arrow

39.92423, -83.80882

Hourly Observations for August 30, 2020

Temp ( °F °C ) Dew Point ( °F °C ) Humidity (%) Winds ( mph kmh ) Pressure ( in mb ) Visibility ( mi km ) Precip ( " mm )
12:56 am 00:56 Clear 62 16.7 59 15 90 90 NNW 5 7 29.85 1011 10 16 N/A
1:56 am 01:56 Clear 60 15.6 57 13.9 90 90 NW 5 7 29.86 1011 10 16 N/A
2:56 am 02:56 Clear 58 14.4 56 13.3 93 93 NNW 5 7 29.86 1011 10 16 N/A
3:56 am 03:56 Clear 55 12.8 55 12.8 100 100 W 3 6 29.87 1011 10 16 N/A
4:56 am 04:56 Clear 53 11.7 53 11.7 100 100 WNW 3 6 29.89 1012 10 16 N/A
5:56 am 05:56 Clear 53 11.7 53 11.7 100 100 N N/A 29.90 1013 10 16 N/A
6:52 am 06:52 Clear with Mist and Fog 52 11 52 11 100 100 N N/A 29.93 1013 2 3 N/A
6:56 am 06:56 Clear with Mist and Fog 51 10.6 51 10.6 100 100 N N/A 29.92 1013 2 3 N/A
7:00 am 07:00 Clear with Mist and Fog 52 11 52 11 100 100 SW 3 6 29.94 1014 4 6 N/A
7:56 am 07:56 Sunny 55 12.8 55 12.8 100 100 N N/A 29.93 1014 10 16 N/A
8:56 am 08:56 Sunny 62 16.7 59 15 90 90 N 5 7 29.93 1014 10 16 N/A
9:56 am 09:56 Sunny 67 19.4 57 13.9 71 71 ENE 5 7 29.94 1014 9 14 N/A
10:56 am 10:56 Sunny 70 21.1 58 14.4 66 66 VRB 5 7 29.96 1014 10 16 N/A
11:56 am 11:56 Sunny 73 22.8 55 12.8 53 53 N 5 7 29.96 1015 10 16 N/A
12:56 pm 12:56 Partly Cloudy 74 23.3 55 12.8 52 52 N 8 13 29.94 1014 10 16 N/A
1:56 pm 13:56 Sunny 75 23.9 56 13.3 52 52 NNW 7 11 29.92 1013 10 16 N/A
2:56 pm 14:56 Mostly Sunny 76 24.4 57 13.9 52 52 VRB 3 6 29.91 1013 9 14 N/A
3:56 pm 15:56 Sunny 74 23.3 55 12.8 52 52 N N/A 29.89 1012 10 16 N/A
4:56 pm 16:56 Sunny 75 23.9 56 13.3 52 52 ESE 6 9 29.89 1012 10 16 N/A
5:56 pm 17:56 Sunny 75 23.9 56 13.3 52 52 E 5 7 29.89 1012 10 16 N/A
6:56 pm 18:56 Sunny 73 22.8 58 14.4 59 59 ENE 6 9 29.88 1012 10 16 N/A
7:56 pm 19:56 Mostly Cloudy 69 20.6 58 14.4 68 68 ENE 6 9 29.90 1012 10 16 N/A
8:56 pm 20:56 Mostly Clear 65 18.3 59 15 81 81 ENE 5 7 29.91 1013 10 16 N/A
9:56 pm 21:56 Clear 61 16.1 59 15 93 93 NNE 5 7 29.93 1014 10 16 N/A
10:56 pm 22:56 Clear 58 14.4 57 13.9 97 97 NE 7 11 29.91 1013 10 16 N/A
11:56 pm 23:56 Clear 58 14.4 57 13.9 97 97 E 5 7 29.91 1013 10 16 N/A

Powered by AerisWeather